Overview Statistics Trail Chart Weather Telemetry Raw packets
 

This is the latest recevied weather packets stored in our database for station/object 4S6DRJ-13. If no packets are shown the sender has not sent any weather packets the latest 10 day(s).

<< 501 502 503 504 505 506 507 >>
Time Temp. Humidity Pressure Rain* Wind** Luminosity Snow
1787684378 27.22° C 85% 1011.2 hPa 0 mm 0.89 m/s, 143° 0 W/m² -
1787684317 27.22° C 85% 1011.2 hPa 0 mm 0.45 m/s, 194° 0 W/m² -
1787684256 27.22° C 85% 1011.3 hPa 0 mm 0.89 m/s, 232° 0 W/m² -
1787684195 27.22° C 85% 1011.3 hPa 0 mm 0.89 m/s, 226° 0 W/m² -
1787684135 27.22° C 85% 1011.2 hPa 0 mm 0 m/s 0 W/m² -
1787684073 27.22° C 85% 1011.4 hPa 0 mm 0.89 m/s, 199° 0 W/m² -
1787684012 27.22° C 85% 1011.3 hPa 0 mm 0.89 m/s, 216° 0 W/m² -
1787683951 27.22° C 85% 1011.3 hPa 0 mm 0.45 m/s, 237° 0 W/m² -
1787683890 27.22° C 85% 1011.4 hPa 0 mm 0.45 m/s, 243° 0 W/m² -
1787683829 27.22° C 85% 1011.4 hPa 0 mm 0.45 m/s, 251° 0 W/m² -
1787683768 27.22° C 85% 1011.3 hPa 0 mm 0.45 m/s, 181° 0 W/m² -
1787683707 27.22° C 86% 1011.4 hPa 0 mm 0.89 m/s, 226° 0 W/m² -
1787683646 27.22° C 86% 1011.2 hPa 0 mm 0 m/s 0 W/m² -
1787683585 27.22° C 86% 1011.2 hPa 0 mm 0.89 m/s, 235° 0 W/m² -
1787683524 27.22° C 86% 1011.3 hPa 0 mm 0.45 m/s, 209° 0 W/m² -
1787683463 27.22° C 86% 1011.5 hPa 0 mm 0 m/s 0 W/m² -
1787683402 27.22° C 86% 1011.4 hPa 0 mm 0.45 m/s, 268° 0 W/m² -
1787683341 27.22° C 86% 1011.5 hPa 0 mm 0.89 m/s, 224° 0 W/m² -
1787683280 27.22° C 86% 1011.5 hPa 0 mm 0.45 m/s, 221° 0 W/m² -
1787683219 27.22° C 86% 1011.4 hPa 0 mm 1.79 m/s, 248° 0 W/m² -
1787683158 27.22° C 86% 1011.3 hPa 0 mm 1.34 m/s, 241° 0 W/m² -
1787683098 27.22° C 86% 1011.5 hPa 0 mm 0.45 m/s, 203° 0 W/m² -
1787683036 27.22° C 86% 1011.3 hPa 0 mm 0.89 m/s, 193° 0 W/m² -
1787682975 27.22° C 86% 1011.4 hPa 0 mm 0 m/s 0 W/m² -
1787682914 27.22° C 86% 1011.5 hPa 0 mm 0.45 m/s, 220° 0 W/m² -

* Rain latest hour (hover to see other rain measurements)
** Current wind speed in m/s (hover to see current wind gust speed)